Location: Izdebno
(52.6670°N, 16.2170°E)
Time: 23:04:35
(UTC+01:00)

Transit 2A - Pass Details

Date: 25 September 2023
Orbit: 600 x 953 km, 66.7° (Epoch: 03 December)

Event Time Altitude Azimuth Distance (km) Brightness Sun altitude
Rises 19:28:15 0° 309° (NW) 3,058 10.3 -7.0°
Reaches altitude 10° 19:31:51 10° 282° (WNW) 2,066 10.0 -7.6°
Maximum altitude 19:33:54 13° 255° (WSW) 1,842 9.2 -7.9°
Drops below altitude 10° 19:35:54 10° 228° (SW) 1,996 8.8 -8.2°
Sets 19:39:15 0° 200° (SSW) 2,859 9.1 -8.7°
